User: anonymous   Login
Location: Anuling
(14.1239°N, 120.8922°E)
Time: 05:21:07
(UTC+00:00)
Language:

Nadezhda 3 Rocket - Orbit

View from above orbital plane
View from above orbital plane
View from above satellite
View from above satellite

Ground track
Ground track

The orbit is defined by the following mean orbital elements,

1 21153U          26074.98678426 +.00000000 +00000-0 +57365-4 0 00004
2 21153  82.9297 346.3847 0027913 225.7059 145.3423 13.76344927    06
Epoch (UTC): 15 March 2026 23:40:58
Eccentricity: 0.0027913
inclination: 82.9297°
perigee height: 956 km
apogee height: 997 km
right ascension of ascending node: 346.3847°
argument of perigee: 225.7059°
revolutions per day: 13.76344927
mean anomaly at epoch: 145.3423°

The dashed part of the orbit path shows where the satellite is in the earth's shadow,  

DLR